Free Severe Weather Alerts by Email and Text Message   

 
Follow iAlert.com on twitter @ialertcom
Search For Active Alerts in Your Area  
  Hi Guest:  [ Sign-up / Services ] [ Login ]

Current weather by "City, St" or "zip code"  

 

Advertise Here

Hazardous Weather Conditions

No active alerts for NEW YORK, NEW YORK

Current Conditions: NEW YORK, NEW YORK

Fog/Mist


73.0 F

Last Updated on Aug 19 2017, 6:51 am EDT
Humidity: 96%
Wind Speed: N 0.0 mph
Barometer 29.85 in
Dewpoint: 72.0 F
Visibility: 5.00 mi
Precip: --
Heat Index: NA
Wind Chill: NA
Current conditions at:

New York City, Central Park, NY (KNYC)

Lat: 40.78 Lon: -73.966

Local Radar Image active severe weather and emergency alerts image image weather storm and storm spotter reports image weather observation monitoring service image
Local
Radar
Active
Alerts
Storm Reports Weather
Monitoring

Weather Alert Notification Services


ialert severe weather and emergency alerts by text message and email ialert daily weather forecast by email and text message service ialert real-time weather-observation monitoring and alert notification service ialert storm report monitoring alert notification

Observation History for NEW YORK, NEW YORK


Time Wind
(mph)
Vis
(mi)
Weather Precip (in) Temperature (F) Relative
Humidity
Wind
Chill
(°F)
Heat
Index
(°F)
Pressure
Air Dwpt altimeter
(in)
sea level
(mb)
6:51 am EDT N 0.0 5.00 Fog/Mist -- 73.0 72.0 96% NA NA 29.85 1009.8
5:51 am EDT N 0.0 6.00 Fog/Mist -- 74.0 72.0 94% NA NA 29.84 1009.4
4:51 am EDT SW 5.8 8.00 Mostly Cloudy -- 74.0 72.0 94% NA NA 29.82 1008.9
3:51 am EDT N 0.0 9.00 Overcast -- 74.0 72.0 94% NA NA 29.80 1008.2
2:51 am EDT W 5.8 10.00 Fair -- 73.0 71.1 94% NA NA 29.81 1008.3
1:51 am EDT W 5.8 10.00 Overcast -- 74.0 72.0 94% NA NA 29.81 1008.5
12:51 am EDT W 4.6 10.00 Fair -- 74.0 72.0 94% NA NA 29.82 1008.8
11:51 pm EDT 4.6 10.00 Overcast -- 74.0 72.0 94% NA NA 29.84 1009.5
10:51 pm EDT 6.9 G 17.3 10.00 Fair -- 73.0 71.1 94% NA NA 29.84 1009.4
9:51 pm EDT N 0.0 10.00 Partly Cloudy -- 73.0 72.0 96% NA NA 29.82 1008.9
8:51 pm EDT SW 8.1 10.00 Fair 00.01 73.0 71.1 94% NA NA 29.80 1008.0
7:51 pm EDT W 5.8 4.00 Rain Fog/Mist 00.09 74.0 72.0 94% NA NA 29.82 1008.8
6:51 pm EDT N 0.0 6.00 Light Rain Fog/Mist Trace 79.0 75.9 90% NA NA 29.82 1008.7
5:51 pm EDT 4.6 6.00 Fog/Mist -- 79.0 75.9 90% NA NA 29.82 1008.6
4:51 pm EDT 5.8 6.00 Fog/Mist -- 80.0 77.0 90% NA 86 29.80 1008.3
3:51 pm EDT N 0.0 8.00 Overcast -- 81.0 77.0 88% NA 88 29.82 1008.6
2:51 pm EDT N 0.0 8.00 Overcast -- 80.0 75.9 87% NA 85 29.85 1009.6
1:51 pm EDT 4.6 6.00 Fog/Mist -- 79.0 75.9 90% NA NA 29.86 1010.2
12:51 pm EDT N 0.0 4.00 Fog/Mist -- 78.0 77.0 97% NA NA 29.88 1010.7
11:51 am EDT 4.6 4.00 Fog/Mist 00.01 77.0 75.9 96% NA NA 29.89 1011.2
10:51 am EDT N 0.0 3.00 Fog/Mist 00.02 76.0 73.9 94% NA NA 29.91 1011.7
9:51 am EDT N 0.0 4.00 Fog/Mist 00.35 75.0 73.0 94% NA NA 29.91 1011.8
8:51 am EDT SE 5.8 0.25 Heavy Rain Fog 00.37 73.0 72.0 96% NA NA 29.90 1011.6
7:51 am EDT N 0.0 2.50 Light Rain Fog/Mist 00.03 74.0 72.0 94% NA NA 29.92 1012.0

Regional Weather Observation:


New York, La Guardia Airport, NY (KLGA)

Mostly Cloudy
76.0 F

Newark, Newark International Airport, NJ (KEWR)

Mostly Cloudy
73.0 F

New York, Kennedy International Airport, NY (KJFK)

Mostly Cloudy
73.0 F

Teterboro, Teterboro Airport, NJ (KTEB)

Shallow Fog
73.0 F

Caldwell, Essex County Airport, NJ (KCDW)

Fog/Mist
70.0 F

Morristown Municipal, NJ (KMMU)

Patches Fog
68.0 F

Advertise Here


Advertise Here